Data supplied by UK-AIR on 30/3/2010
All Data GMT hour ending 
Status: R =Ratified P=Provisional,P*=As supplied
,,Wicken Fen,,,,,,,,,,,,,,,,,,,,,,,
Date,time,"Nitric oxide",status,unit,"Nitrogen dioxide",status,unit,"Nitrogen oxides as nitrogen dioxide",status,unit,"Ozone",status,unit,"Sulphur dioxide",status,unit
 
01-01-2009,01:00,,,,,,,,,,,,,,,
01-01-2009,02:00,4.1,R,ugm-3,19.9,R,ugm-3,26.2,R,ugm-3,10,R,ugm-3,0.5,R,ugm-3
01-01-2009,03:00,5.3,R,ugm-3,21.6,R,ugm-3,29.6,R,ugm-3,8,R,ugm-3,0.8,R,ugm-3
01-01-2009,04:00,8.0,R,ugm-3,24.1,R,ugm-3,36.3,R,ugm-3,8,R,ugm-3,2.7,R,ugm-3
01-01-2009,05:00,8.0,R,ugm-3,24.4,R,ugm-3,36.7,R,ugm-3,8,R,ugm-3,2.1,R,ugm-3
01-01-2009,06:00,10.1,R,ugm-3,22.9,R,ugm-3,38.4,R,ugm-3,8,R,ugm-3,2.7,R,ugm-3
01-01-2009,07:00,14.1,R,ugm-3,22.5,R,ugm-3,44.1,R,ugm-3,8,R,ugm-3,2.7,R,ugm-3
01-01-2009,08:00,20.6,R,ugm-3,24.1,R,ugm-3,55.6,R,ugm-3,8,R,ugm-3,2.7,R,ugm-3
01-01-2009,09:00,24.8,R,ugm-3,24.6,R,ugm-3,62.5,R,ugm-3,8,R,ugm-3,3.5,R,ugm-3
01-01-2009,10:00,35.3,R,ugm-3,28.5,R,ugm-3,82.3,R,ugm-3,10,R,ugm-3,5.3,R,ugm-3
01-01-2009,11:00,43.0,R,ugm-3,28.3,R,ugm-3,94.0,R,ugm-3,10,R,ugm-3,5.3,R,ugm-3
01-01-2009,12:00,45.0,R,ugm-3,29.2,R,ugm-3,98.0,R,ugm-3,10,R,ugm-3,5.3,R,ugm-3
01-01-2009,13:00,44.8,R,ugm-3,27.3,R,ugm-3,95.7,R,ugm-3,10,R,ugm-3,5.3,R,ugm-3
01-01-2009,14:00,44.8,R,ugm-3,27.1,R,ugm-3,95.5,R,ugm-3,10,R,ugm-3,5.3,R,ugm-3
01-01-2009,15:00,41.4,R,ugm-3,24.8,R,ugm-3,88.1,R,ugm-3,10,R,ugm-3,4.8,R,ugm-3
01-01-2009,16:00,38.1,R,ugm-3,23.7,R,ugm-3,81.9,R,ugm-3,10,R,ugm-3,4.8,R,ugm-3
01-01-2009,17:00,37.0,R,ugm-3,20.4,R,ugm-3,77.0,R,ugm-3,8,R,ugm-3,2.7,R,ugm-3
01-01-2009,18:00,34.0,R,ugm-3,16.6,R,ugm-3,68.6,R,ugm-3,10,R,ugm-3,2.7,R,ugm-3
01-01-2009,19:00,28.4,R,ugm-3,13.9,R,ugm-3,57.3,R,ugm-3,10,R,ugm-3,2.7,R,ugm-3
01-01-2009,20:00,24.0,R,ugm-3,9.9,R,ugm-3,46.6,R,ugm-3,8,R,ugm-3,1.6,R,ugm-3
01-01-2009,21:00,22.3,R,ugm-3,7.8,R,ugm-3,41.8,R,ugm-3,8,R,ugm-3,2.1,R,ugm-3
01-01-2009,22:00,20.3,R,ugm-3,9.2,R,ugm-3,40.1,R,ugm-3,10,R,ugm-3,2.7,R,ugm-3
01-01-2009,23:00,17.9,R,ugm-3,6.5,R,ugm-3,33.8,R,ugm-3,10,R,ugm-3,1.3,R,ugm-3
01-01-2009,24:00,17.0,R,ugm-3,5.9,R,ugm-3,31.9,R,ugm-3,10,R,ugm-3,2.1,R,ugm-3
02-01-2009,01:00,17.1,R,ugm-3,1.9,R,ugm-3,28.1,R,ugm-3,8,R,ugm-3,0.8,R,ugm-3
02-01-2009,02:00,12.5,R,ugm-3,2.1,R,ugm-3,21.2,R,ugm-3,8,R,ugm-3,0.8,R,ugm-3
02-01-2009,03:00,11.4,R,ugm-3,2.1,R,ugm-3,19.5,R,ugm-3,8,R,ugm-3,1.3,R,ugm-3
02-01-2009,04:00,8.8,R,ugm-3,2.1,R,ugm-3,15.5,R,ugm-3,8,R,ugm-3,0.3,R,ugm-3
02-01-2009,05:00,7.1,R,ugm-3,2.5,R,ugm-3,13.4,R,ugm-3,10,R,ugm-3,0.3,R,ugm-3
02-01-2009,06:00,6.1,R,ugm-3,2.3,R,ugm-3,11.7,R,ugm-3,10,R,ugm-3,0.8,R,ugm-3
02-01-2009,07:00,5.8,R,ugm-3,3.2,R,ugm-3,12.0,R,ugm-3,14,R,ugm-3,0.3,R,ugm-3
02-01-2009,08:00,4.4,R,ugm-3,2.7,R,ugm-3,9.4,R,ugm-3,22,R,ugm-3,0.0,R,ugm-3
02-01-2009,09:00,3.6,R,ugm-3,2.5,R,ugm-3,8.0,R,ugm-3,26,R,ugm-3,0.3,R,ugm-3
02-01-2009,10:00,3.4,R,ugm-3,2.9,R,ugm-3,8.0,R,ugm-3,16,R,ugm-3,0.0,R,ugm-3
02-01-2009,11:00,5.5,R,ugm-3,5.7,R,ugm-3,14.1,R,ugm-3,26,R,ugm-3,0.3,R,ugm-3
02-01-2009,12:00,2.0,R,ugm-3,10.7,R,ugm-3,13.8,R,ugm-3,50,R,ugm-3,0.0,R,ugm-3
02-01-2009,13:00,1.1,R,ugm-3,6.7,R,ugm-3,8.4,R,ugm-3,56,R,ugm-3,0.0,R,ugm-3
02-01-2009,14:00,1.0,R,ugm-3,6.9,R,ugm-3,8.4,R,ugm-3,56,R,ugm-3,0.0,R,ugm-3
02-01-2009,15:00,0.4,R,ugm-3,5.9,R,ugm-3,6.5,R,ugm-3,62,R,ugm-3,0.3,R,ugm-3
02-01-2009,16:00,0.9,R,ugm-3,5.0,R,ugm-3,6.3,R,ugm-3,60,R,ugm-3,0.0,R,ugm-3
02-01-2009,17:00,1.9,R,ugm-3,12.0,R,ugm-3,14.9,R,ugm-3,54,R,ugm-3,1.6,R,ugm-3
02-01-2009,18:00,1.5,R,ugm-3,15.3,R,ugm-3,17.6,R,ugm-3,46,R,ugm-3,0.3,R,ugm-3
02-01-2009,19:00,1.3,R,ugm-3,10.3,R,ugm-3,12.2,R,ugm-3,46,R,ugm-3,1.6,R,ugm-3
02-01-2009,20:00,0.9,R,ugm-3,7.8,R,ugm-3,9.2,R,ugm-3,42,R,ugm-3,0.0,R,ugm-3
02-01-2009,21:00,1.1,R,ugm-3,7.8,R,ugm-3,9.6,R,ugm-3,42,R,ugm-3,1.3,R,ugm-3
02-01-2009,22:00,1.8,R,ugm-3,9.2,R,ugm-3,11.8,R,ugm-3,36,R,ugm-3,2.9,R,ugm-3
02-01-2009,23:00,2.0,R,ugm-3,9.0,R,ugm-3,12.0,R,ugm-3,34,R,ugm-3,2.4,R,ugm-3
02-01-2009,24:00,2.0,R,ugm-3,7.6,R,ugm-3,10.7,R,ugm-3,32,R,ugm-3,2.4,R,ugm-3
03-01-2009,01:00,2.5,R,ugm-3,3.2,R,ugm-3,7.1,R,ugm-3,20,R,ugm-3,0.0,R,ugm-3
03-01-2009,02:00,2.5,R,ugm-3,1.0,R,ugm-3,4.8,R,ugm-3,16,R,ugm-3,0.0,R,ugm-3
03-01-2009,03:00,2.9,R,ugm-3,0.6,R,ugm-3,5.0,R,ugm-3,12,R,ugm-3,0.0,R,ugm-3
03-01-2009,04:00,6.0,R,ugm-3,1.1,R,ugm-3,10.3,R,ugm-3,8,R,ugm-3,0.0,R,ugm-3
03-01-2009,05:00,14.5,R,ugm-3,5.5,R,ugm-3,27.7,R,ugm-3,8,R,ugm-3,0.0,R,ugm-3
03-01-2009,06:00,14.9,R,ugm-3,5.2,R,ugm-3,27.9,R,ugm-3,10,R,ugm-3,0.0,R,ugm-3
03-01-2009,07:00,8.9,R,ugm-3,3.2,R,ugm-3,16.8,R,ugm-3,10,R,ugm-3,0.0,R,ugm-3
03-01-2009,08:00,6.4,R,ugm-3,3.1,R,ugm-3,12.8,R,ugm-3,10,R,ugm-3,0.8,R,ugm-3
03-01-2009,09:00,15.3,R,ugm-3,7.1,R,ugm-3,30.4,R,ugm-3,10,R,ugm-3,0.0,R,ugm-3
03-01-2009,10:00,36.1,R,ugm-3,14.7,R,ugm-3,69.9,R,ugm-3,10,R,ugm-3,2.4,R,ugm-3
03-01-2009,11:00,46.4,R,ugm-3,19.5,R,ugm-3,90.3,R,ugm-3,10,R,ugm-3,2.1,R,ugm-3
03-01-2009,12:00,51.5,R,ugm-3,24.4,R,ugm-3,103.1,R,ugm-3,10,R,ugm-3,2.7,R,ugm-3
03-01-2009,13:00,62.4,R,ugm-3,26.7,R,ugm-3,122.0,R,ugm-3,10,R,ugm-3,2.7,R,ugm-3
03-01-2009,14:00,41.3,R,ugm-3,24.8,R,ugm-3,87.9,R,ugm-3,38,R,ugm-3,1.3,R,ugm-3
03-01-2009,15:00,6.4,R,ugm-3,18.0,R,ugm-3,27.7,R,ugm-3,70,R,ugm-3,0.3,R,ugm-3
03-01-2009,16:00,0.5,R,ugm-3,5.7,R,ugm-3,6.5,R,ugm-3,62,R,ugm-3,2.1,R,ugm-3
03-01-2009,17:00,0.9,R,ugm-3,2.9,R,ugm-3,4.2,R,ugm-3,48,R,ugm-3,3.7,R,ugm-3
03-01-2009,18:00,1.0,R,ugm-3,6.5,R,ugm-3,8.0,R,ugm-3,36,R,ugm-3,5.1,R,ugm-3
03-01-2009,19:00,1.3,R,ugm-3,13.2,R,ugm-3,15.1,R,ugm-3,28,R,ugm-3,3.5,R,ugm-3
03-01-2009,20:00,2.0,R,ugm-3,16.2,R,ugm-3,19.3,R,ugm-3,26,R,ugm-3,5.1,R,ugm-3
03-01-2009,21:00,2.5,R,ugm-3,15.3,R,ugm-3,19.1,R,ugm-3,22,R,ugm-3,4.8,R,ugm-3
03-01-2009,22:00,2.1,R,ugm-3,12.8,R,ugm-3,16.0,R,ugm-3,30,R,ugm-3,2.7,R,ugm-3
03-01-2009,23:00,1.6,R,ugm-3,12.6,R,ugm-3,15.1,R,ugm-3,26,R,ugm-3,2.7,R,ugm-3
03-01-2009,24:00,3.1,R,ugm-3,18.5,R,ugm-3,23.3,R,ugm-3,18,R,ugm-3,2.7,R,ugm-3
04-01-2009,01:00,3.0,R,ugm-3,20.1,R,ugm-3,24.6,R,ugm-3,28,R,ugm-3,2.7,R,ugm-3
04-01-2009,02:00,2.1,R,ugm-3,19.3,R,ugm-3,22.5,R,ugm-3,34,R,ugm-3,2.7,R,ugm-3
04-01-2009,03:00,1.4,R,ugm-3,14.5,R,ugm-3,16.6,R,ugm-3,38,R,ugm-3,2.9,R,ugm-3
04-01-2009,04:00,1.4,R,ugm-3,13.2,R,ugm-3,15.3,R,ugm-3,40,R,ugm-3,2.9,R,ugm-3
04-01-2009,05:00,1.8,R,ugm-3,22.2,R,ugm-3,24.8,R,ugm-3,28,R,ugm-3,2.7,R,ugm-3
04-01-2009,06:00,2.1,R,ugm-3,27.3,R,ugm-3,30.6,R,ugm-3,34,R,ugm-3,1.6,R,ugm-3
04-01-2009,07:00,1.1,R,ugm-3,20.6,R,ugm-3,22.3,R,ugm-3,44,R,ugm-3,1.3,R,ugm-3
04-01-2009,08:00,1.1,R,ugm-3,16.0,R,ugm-3,17.8,R,ugm-3,44,R,ugm-3,1.6,R,ugm-3
04-01-2009,09:00,1.1,R,ugm-3,13.0,R,ugm-3,14.7,R,ugm-3,44,R,ugm-3,0.3,R,ugm-3
04-01-2009,10:00,0.8,R,ugm-3,11.8,R,ugm-3,13.0,R,ugm-3,50,R,ugm-3,1.6,R,ugm-3
04-01-2009,11:00,0.6,R,ugm-3,9.0,R,ugm-3,9.9,R,ugm-3,54,R,ugm-3,1.3,R,ugm-3
04-01-2009,12:00,0.5,R,ugm-3,8.0,R,ugm-3,8.8,R,ugm-3,54,R,ugm-3,1.6,R,ugm-3
04-01-2009,13:00,1.1,R,ugm-3,7.1,R,ugm-3,8.8,R,ugm-3,48,R,ugm-3,1.3,R,ugm-3
04-01-2009,14:00,0.6,R,ugm-3,9.7,R,ugm-3,10.7,R,ugm-3,44,R,ugm-3,2.4,R,ugm-3
04-01-2009,15:00,1.1,R,ugm-3,13.2,R,ugm-3,14.9,R,ugm-3,42,R,ugm-3,2.4,R,ugm-3
04-01-2009,16:00,1.1,R,ugm-3,12.4,R,ugm-3,14.1,R,ugm-3,40,R,ugm-3,1.6,R,ugm-3
04-01-2009,17:00,1.3,R,ugm-3,13.8,R,ugm-3,15.7,R,ugm-3,34,R,ugm-3,2.7,R,ugm-3
04-01-2009,18:00,1.8,R,ugm-3,15.7,R,ugm-3,18.3,R,ugm-3,32,R,ugm-3,2.4,R,ugm-3
04-01-2009,19:00,2.1,R,ugm-3,16.0,R,ugm-3,19.3,R,ugm-3,24,R,ugm-3,1.3,R,ugm-3
04-01-2009,20:00,2.1,R,ugm-3,17.8,R,ugm-3,21.0,R,ugm-3,18,R,ugm-3,1.6,R,ugm-3
04-01-2009,21:00,3.3,R,ugm-3,18.3,R,ugm-3,23.3,R,ugm-3,14,R,ugm-3,2.1,R,ugm-3
04-01-2009,22:00,4.5,R,ugm-3,22.7,R,ugm-3,29.6,R,ugm-3,14,R,ugm-3,2.7,R,ugm-3
04-01-2009,23:00,6.6,R,ugm-3,26.7,R,ugm-3,36.9,R,ugm-3,12,R,ugm-3,2.4,R,ugm-3
04-01-2009,24:00,8.3,R,ugm-3,27.5,R,ugm-3,40.1,R,ugm-3,10,R,ugm-3,2.7,R,ugm-3
05-01-2009,01:00,8.8,R,ugm-3,29.4,R,ugm-3,42.8,R,ugm-3,12,R,ugm-3,3.2,R,ugm-3
05-01-2009,02:00,7.0,R,ugm-3,26.7,R,ugm-3,37.4,R,ugm-3,16,R,ugm-3,1.9,R,ugm-3
05-01-2009,03:00,4.5,R,ugm-3,20.8,R,ugm-3,27.7,R,ugm-3,28,R,ugm-3,2.7,R,ugm-3
05-01-2009,04:00,2.5,R,ugm-3,12.8,R,ugm-3,16.6,R,ugm-3,36,R,ugm-3,1.3,R,ugm-3
05-01-2009,05:00,1.8,R,ugm-3,10.7,R,ugm-3,13.4,R,ugm-3,42,R,ugm-3,2.4,R,ugm-3
05-01-2009,06:00,1.5,R,ugm-3,8.4,R,ugm-3,10.7,R,ugm-3,50,R,ugm-3,1.1,R,ugm-3
05-01-2009,07:00,1.1,R,ugm-3,3.1,R,ugm-3,4.8,R,ugm-3,68,R,ugm-3,0.3,R,ugm-3
05-01-2009,08:00,0.5,R,ugm-3,2.3,R,ugm-3,3.1,R,ugm-3,66,R,ugm-3,1.6,R,ugm-3
05-01-2009,09:00,1.1,R,ugm-3,3.2,R,ugm-3,5.0,R,ugm-3,58,R,ugm-3,0.8,R,ugm-3
05-01-2009,10:00,1.5,R,ugm-3,6.1,R,ugm-3,8.4,R,ugm-3,62,R,ugm-3,1.3,R,ugm-3
05-01-2009,11:00,1.1,R,ugm-3,6.5,R,ugm-3,8.2,R,ugm-3,62,R,ugm-3,0.0,R,ugm-3
05-01-2009,12:00,1.5,R,ugm-3,6.1,R,ugm-3,8.4,R,ugm-3,68,R,ugm-3,0.8,R,ugm-3
05-01-2009,13:00,1.3,R,ugm-3,5.5,R,ugm-3,7.4,R,ugm-3,72,R,ugm-3,0.3,R,ugm-3
05-01-2009,14:00,1.4,R,ugm-3,4.2,R,ugm-3,6.3,R,ugm-3,70,R,ugm-3,0.3,R,ugm-3
05-01-2009,15:00,0.9,R,ugm-3,2.9,R,ugm-3,4.2,R,ugm-3,70,R,ugm-3,0.0,R,ugm-3
05-01-2009,16:00,1.1,R,ugm-3,3.6,R,ugm-3,5.3,R,ugm-3,66,R,ugm-3,0.3,R,ugm-3
05-01-2009,17:00,1.3,R,ugm-3,4.8,R,ugm-3,6.7,R,ugm-3,62,R,ugm-3,0.0,R,ugm-3
05-01-2009,18:00,0.6,R,ugm-3,4.8,R,ugm-3,5.7,R,ugm-3,64,R,ugm-3,0.8,R,ugm-3
05-01-2009,19:00,1.4,R,ugm-3,5.7,R,ugm-3,7.8,R,ugm-3,62,R,ugm-3,0.8,R,ugm-3
05-01-2009,20:00,1.1,R,ugm-3,4.6,R,ugm-3,6.3,R,ugm-3,68,R,ugm-3,0.3,R,ugm-3
05-01-2009,21:00,0.6,R,ugm-3,3.4,R,ugm-3,4.4,R,ugm-3,62,R,ugm-3,0.0,R,ugm-3
05-01-2009,22:00,0.9,R,ugm-3,4.0,R,ugm-3,5.3,R,ugm-3,60,R,ugm-3,0.8,R,ugm-3
05-01-2009,23:00,1.1,R,ugm-3,3.1,R,ugm-3,4.8,R,ugm-3,58,R,ugm-3,0.8,R,ugm-3
05-01-2009,24:00,1.1,R,ugm-3,1.1,R,ugm-3,2.9,R,ugm-3,56,R,ugm-3,0.0,R,ugm-3
06-01-2009,01:00,0.0,R,ugm-3,4.4,R,ugm-3,4.4,R,ugm-3,56,R,ugm-3,0.0,R,ugm-3
06-01-2009,02:00,0.4,R,ugm-3,3.6,R,ugm-3,4.2,R,ugm-3,60,R,ugm-3,0.0,R,ugm-3
06-01-2009,03:00,0.3,R,ugm-3,4.0,R,ugm-3,4.4,R,ugm-3,56,R,ugm-3,0.3,R,ugm-3
06-01-2009,04:00,0.5,R,ugm-3,2.9,R,ugm-3,3.6,R,ugm-3,48,R,ugm-3,0.0,R,ugm-3
06-01-2009,05:00,0.9,R,ugm-3,1.9,R,ugm-3,3.2,R,ugm-3,42,R,ugm-3,0.0,R,ugm-3
06-01-2009,06:00,1.1,R,ugm-3,3.4,R,ugm-3,5.2,R,ugm-3,42,R,ugm-3,0.0,R,ugm-3
06-01-2009,07:00,1.1,R,ugm-3,4.4,R,ugm-3,6.1,R,ugm-3,28,R,ugm-3,0.0,R,ugm-3
06-01-2009,08:00,1.6,R,ugm-3,2.7,R,ugm-3,5.2,R,ugm-3,22,R,ugm-3,0.0,R,ugm-3
06-01-2009,09:00,2.0,R,ugm-3,0.6,R,ugm-3,3.6,R,ugm-3,22,R,ugm-3,0.0,R,ugm-3
06-01-2009,10:00,3.3,R,ugm-3,5.0,R,ugm-3,9.9,R,ugm-3,24,R,ugm-3,0.0,R,ugm-3
06-01-2009,11:00,9.8,R,ugm-3,19.3,R,ugm-3,34.2,R,ugm-3,26,R,ugm-3,0.0,R,ugm-3
06-01-2009,12:00,12.1,R,ugm-3,28.8,R,ugm-3,47.4,R,ugm-3,40,R,ugm-3,1.1,R,ugm-3
06-01-2009,13:00,3.6,R,ugm-3,25.6,R,ugm-3,31.1,R,ugm-3,58,R,ugm-3,1.3,R,ugm-3
06-01-2009,14:00,1.9,R,ugm-3,20.2,R,ugm-3,23.1,R,ugm-3,60,R,ugm-3,1.1,R,ugm-3
06-01-2009,15:00,1.5,R,ugm-3,19.3,R,ugm-3,21.6,R,ugm-3,60,R,ugm-3,1.3,R,ugm-3
06-01-2009,16:00,0.9,R,ugm-3,15.3,R,ugm-3,16.6,R,ugm-3,62,R,ugm-3,0.0,R,ugm-3
06-01-2009,17:00,1.1,R,ugm-3,12.8,R,ugm-3,14.5,R,ugm-3,50,R,ugm-3,0.0,R,ugm-3
06-01-2009,18:00,1.3,R,ugm-3,14.1,R,ugm-3,16.0,R,ugm-3,36,R,ugm-3,1.1,R,ugm-3
06-01-2009,19:00,2.4,R,ugm-3,15.9,R,ugm-3,19.5,R,ugm-3,20,R,ugm-3,0.0,R,ugm-3
06-01-2009,20:00,7.9,R,ugm-3,25.2,R,ugm-3,37.2,R,ugm-3,12,R,ugm-3,0.8,R,ugm-3
06-01-2009,21:00,66.9,R,ugm-3,42.4,R,ugm-3,144.6,R,ugm-3,12,R,ugm-3,4.8,R,ugm-3
06-01-2009,22:00,109.0,R,ugm-3,53.9,R,ugm-3,220.4,R,ugm-3,12,R,ugm-3,4.8,R,ugm-3
06-01-2009,23:00,94.0,R,ugm-3,54.6,R,ugm-3,198.3,R,ugm-3,14,R,ugm-3,2.9,R,ugm-3
06-01-2009,24:00,59.3,R,ugm-3,54.1,R,ugm-3,144.6,R,ugm-3,12,R,ugm-3,2.7,R,ugm-3
07-01-2009,01:00,38.3,R,ugm-3,56.3,R,ugm-3,114.8,R,ugm-3,8,R,ugm-3,2.7,R,ugm-3
07-01-2009,02:00,21.6,R,ugm-3,59.2,R,ugm-3,92.3,R,ugm-3,8,R,ugm-3,3.5,R,ugm-3
07-01-2009,03:00,21.8,R,ugm-3,61.7,R,ugm-3,94.9,R,ugm-3,8,R,ugm-3,2.7,R,ugm-3
07-01-2009,04:00,20.4,R,ugm-3,58.3,R,ugm-3,89.4,R,ugm-3,8,R,ugm-3,2.7,R,ugm-3
07-01-2009,05:00,14.0,R,ugm-3,54.1,R,ugm-3,75.4,R,ugm-3,8,R,ugm-3,2.7,R,ugm-3
07-01-2009,06:00,8.9,R,ugm-3,48.1,R,ugm-3,61.7,R,ugm-3,10,R,ugm-3,1.6,R,ugm-3
07-01-2009,07:00,6.9,R,ugm-3,43.4,R,ugm-3,53.9,R,ugm-3,10,R,ugm-3,2.4,R,ugm-3
07-01-2009,08:00,6.5,R,ugm-3,40.1,R,ugm-3,50.0,R,ugm-3,10,R,ugm-3,1.1,R,ugm-3
07-01-2009,09:00,7.0,R,ugm-3,35.5,R,ugm-3,46.2,R,ugm-3,10,R,ugm-3,1.1,R,ugm-3
07-01-2009,10:00,13.6,R,ugm-3,33.6,R,ugm-3,54.4,R,ugm-3,14,R,ugm-3,2.4,R,ugm-3
07-01-2009,11:00,20.4,R,ugm-3,36.3,R,ugm-3,67.4,R,ugm-3,20,R,ugm-3,2.4,R,ugm-3
07-01-2009,12:00,14.8,R,ugm-3,34.0,R,ugm-3,56.5,R,ugm-3,20,R,ugm-3,2.7,R,ugm-3
07-01-2009,13:00,11.5,R,ugm-3,33.6,R,ugm-3,51.2,R,ugm-3,26,R,ugm-3,5.1,R,ugm-3
07-01-2009,14:00,6.9,R,ugm-3,35.1,R,ugm-3,45.6,R,ugm-3,30,R,ugm-3,4.3,R,ugm-3
07-01-2009,15:00,3.4,R,ugm-3,34.4,R,ugm-3,39.5,R,ugm-3,28,R,ugm-3,3.5,R,ugm-3
07-01-2009,16:00,4.1,R,ugm-3,34.8,R,ugm-3,41.1,R,ugm-3,22,R,ugm-3,2.7,R,ugm-3
07-01-2009,17:00,5.4,R,ugm-3,34.0,R,ugm-3,42.2,R,ugm-3,8,R,ugm-3,3.7,R,ugm-3
07-01-2009,18:00,7.9,R,ugm-3,33.4,R,ugm-3,45.5,R,ugm-3,8,R,ugm-3,2.1,R,ugm-3
07-01-2009,19:00,10.1,R,ugm-3,34.6,R,ugm-3,50.0,R,ugm-3,4,R,ugm-3,1.3,R,ugm-3
07-01-2009,20:00,22.5,R,ugm-3,32.7,R,ugm-3,67.0,R,ugm-3,6,R,ugm-3,1.3,R,ugm-3
07-01-2009,21:00,33.9,R,ugm-3,31.1,R,ugm-3,82.9,R,ugm-3,6,R,ugm-3,2.4,R,ugm-3
07-01-2009,22:00,39.0,R,ugm-3,30.8,R,ugm-3,90.3,R,ugm-3,6,R,ugm-3,2.4,R,ugm-3
07-01-2009,23:00,44.5,R,ugm-3,32.9,R,ugm-3,100.8,R,ugm-3,4,R,ugm-3,2.7,R,ugm-3
07-01-2009,24:00,48.4,R,ugm-3,31.5,R,ugm-3,105.4,R,ugm-3,10,R,ugm-3,2.7,R,ugm-3
08-01-2009,01:00,60.1,R,ugm-3,34.0,R,ugm-3,125.9,R,ugm-3,10,R,ugm-3,2.7,R,ugm-3
08-01-2009,02:00,57.1,R,ugm-3,36.5,R,ugm-3,123.8,R,ugm-3,10,R,ugm-3,2.7,R,ugm-3
08-01-2009,03:00,54.1,R,ugm-3,36.7,R,ugm-3,119.4,R,ugm-3,10,R,ugm-3,2.4,R,ugm-3
08-01-2009,04:00,50.1,R,ugm-3,35.5,R,ugm-3,112.1,R,ugm-3,10,R,ugm-3,1.6,R,ugm-3
08-01-2009,05:00,46.0,R,ugm-3,35.0,R,ugm-3,105.2,R,ugm-3,10,R,ugm-3,2.1,R,ugm-3
08-01-2009,06:00,41.6,R,ugm-3,34.2,R,ugm-3,97.8,R,ugm-3,10,R,ugm-3,1.6,R,ugm-3
08-01-2009,07:00,44.3,R,ugm-3,32.7,R,ugm-3,100.3,R,ugm-3,10,R,ugm-3,2.4,R,ugm-3
08-01-2009,08:00,51.5,R,ugm-3,36.9,R,ugm-3,115.6,R,ugm-3,12,R,ugm-3,2.1,R,ugm-3
08-01-2009,09:00,40.1,R,ugm-3,38.6,R,ugm-3,99.9,R,ugm-3,16,R,ugm-3,0.8,R,ugm-3
08-01-2009,10:00,18.0,R,ugm-3,36.5,R,ugm-3,64.0,R,ugm-3,16,R,ugm-3,1.1,R,ugm-3
08-01-2009,11:00,17.3,R,ugm-3,36.1,R,ugm-3,62.5,R,ugm-3,14,R,ugm-3,1.3,R,ugm-3
08-01-2009,12:00,28.8,R,ugm-3,39.2,R,ugm-3,83.1,R,ugm-3,14,R,ugm-3,2.7,R,ugm-3
08-01-2009,13:00,39.0,R,ugm-3,42.4,R,ugm-3,102.0,R,ugm-3,16,R,ugm-3,2.7,R,ugm-3
08-01-2009,14:00,52.8,R,ugm-3,45.6,R,ugm-3,126.3,R,ugm-3,12,R,ugm-3,2.7,R,ugm-3
08-01-2009,15:00,57.8,R,ugm-3,46.8,R,ugm-3,135.0,R,ugm-3,12,R,ugm-3,2.7,R,ugm-3
08-01-2009,16:00,41.5,R,ugm-3,43.0,R,ugm-3,106.4,R,ugm-3,12,R,ugm-3,2.7,R,ugm-3
08-01-2009,17:00,30.4,R,ugm-3,39.0,R,ugm-3,85.4,R,ugm-3,10,R,ugm-3,2.7,R,ugm-3
08-01-2009,18:00,40.4,R,ugm-3,38.8,R,ugm-3,100.5,R,ugm-3,12,R,ugm-3,2.7,R,ugm-3
08-01-2009,19:00,51.0,R,ugm-3,39.2,R,ugm-3,117.1,R,ugm-3,14,R,ugm-3,2.1,R,ugm-3
08-01-2009,20:00,55.0,R,ugm-3,35.0,R,ugm-3,119.0,R,ugm-3,12,R,ugm-3,2.4,R,ugm-3
08-01-2009,21:00,63.6,R,ugm-3,31.1,R,ugm-3,128.4,R,ugm-3,10,R,ugm-3,2.4,R,ugm-3
08-01-2009,22:00,53.8,R,ugm-3,28.7,R,ugm-3,110.8,R,ugm-3,10,R,ugm-3,2.4,R,ugm-3
08-01-2009,23:00,40.4,R,ugm-3,29.4,R,ugm-3,91.1,R,ugm-3,12,R,ugm-3,0.8,R,ugm-3
08-01-2009,24:00,34.4,R,ugm-3,28.5,R,ugm-3,81.0,R,ugm-3,10,R,ugm-3,1.6,R,ugm-3
09-01-2009,01:00,30.1,R,ugm-3,22.9,R,ugm-3,69.0,R,ugm-3,14,R,ugm-3,2.1,R,ugm-3
09-01-2009,02:00,22.5,R,ugm-3,23.5,R,ugm-3,57.9,R,ugm-3,10,R,ugm-3,1.3,R,ugm-3
09-01-2009,03:00,19.3,R,ugm-3,19.5,R,ugm-3,48.9,R,ugm-3,10,R,ugm-3,2.1,R,ugm-3
09-01-2009,04:00,22.1,R,ugm-3,18.0,R,ugm-3,51.8,R,ugm-3,10,R,ugm-3,0.0,R,ugm-3
09-01-2009,05:00,27.6,R,ugm-3,21.0,R,ugm-3,63.2,R,ugm-3,10,R,ugm-3,1.1,R,ugm-3
09-01-2009,06:00,27.0,R,ugm-3,18.5,R,ugm-3,59.8,R,ugm-3,10,R,ugm-3,0.0,R,ugm-3
09-01-2009,07:00,23.4,R,ugm-3,17.6,R,ugm-3,53.3,R,ugm-3,14,R,ugm-3,0.0,R,ugm-3
09-01-2009,08:00,20.1,R,ugm-3,29.2,R,ugm-3,60.0,R,ugm-3,12,R,ugm-3,1.1,R,ugm-3
09-01-2009,09:00,16.5,R,ugm-3,35.9,R,ugm-3,61.1,R,ugm-3,14,R,ugm-3,2.4,R,ugm-3
09-01-2009,10:00,16.5,R,ugm-3,39.0,R,ugm-3,64.2,R,ugm-3,26,R,ugm-3,2.7,R,ugm-3
09-01-2009,11:00,3.4,R,ugm-3,30.2,R,ugm-3,35.3,R,ugm-3,36,R,ugm-3,0.0,R,ugm-3
09-01-2009,12:00,,,,,,,,,,,,,,,
09-01-2009,13:00,,,,,,,,,,,,,,,
09-01-2009,14:00,2.6,R,ugm-3,24.1,R,ugm-3,28.1,R,ugm-3,36,R,ugm-3,0.8,R,ugm-3
09-01-2009,15:00,1.6,R,ugm-3,24.6,R,ugm-3,27.1,R,ugm-3,32,R,ugm-3,0.3,R,ugm-3
09-01-2009,16:00,3.9,R,ugm-3,31.5,R,ugm-3,37.4,R,ugm-3,26,R,ugm-3,2.7,R,ugm-3
09-01-2009,17:00,3.9,R,ugm-3,38.6,R,ugm-3,44.5,R,ugm-3,20,R,ugm-3,1.1,R,ugm-3
09-01-2009,18:00,3.0,R,ugm-3,37.2,R,ugm-3,41.8,R,ugm-3,24,R,ugm-3,2.1,R,ugm-3
09-01-2009,19:00,1.9,R,ugm-3,32.9,R,ugm-3,35.7,R,ugm-3,24,R,ugm-3,0.0,R,ugm-3
09-01-2009,20:00,2.5,R,ugm-3,35.9,R,ugm-3,39.7,R,ugm-3,18,R,ugm-3,1.3,R,ugm-3
09-01-2009,21:00,4.4,R,ugm-3,46.4,R,ugm-3,53.1,R,ugm-3,14,R,ugm-3,3.5,R,ugm-3
09-01-2009,22:00,3.8,R,ugm-3,43.4,R,ugm-3,49.1,R,ugm-3,18,R,ugm-3,0.8,R,ugm-3
09-01-2009,23:00,3.0,R,ugm-3,43.5,R,ugm-3,48.1,R,ugm-3,16,R,ugm-3,2.4,R,ugm-3
09-01-2009,24:00,2.0,R,ugm-3,45.1,R,ugm-3,48.1,R,ugm-3,14,R,ugm-3,2.1,R,ugm-3
10-01-2009,01:00,6.8,R,ugm-3,54.1,R,ugm-3,64.4,R,ugm-3,10,R,ugm-3,3.2,R,ugm-3
10-01-2009,02:00,9.0,R,ugm-3,58.8,R,ugm-3,72.6,R,ugm-3,10,R,ugm-3,2.7,R,ugm-3
10-01-2009,03:00,15.5,R,ugm-3,60.7,R,ugm-3,84.4,R,ugm-3,10,R,ugm-3,6.9,R,ugm-3
10-01-2009,04:00,21.1,R,ugm-3,59.6,R,ugm-3,91.9,R,ugm-3,10,R,ugm-3,14.6,R,ugm-3
10-01-2009,05:00,32.6,R,ugm-3,61.7,R,ugm-3,111.5,R,ugm-3,10,R,ugm-3,10.9,R,ugm-3
10-01-2009,06:00,37.5,R,ugm-3,66.3,R,ugm-3,123.6,R,ugm-3,12,R,ugm-3,8.0,R,ugm-3
10-01-2009,07:00,42.9,R,ugm-3,69.0,R,ugm-3,134.5,R,ugm-3,10,R,ugm-3,5.3,R,ugm-3
10-01-2009,08:00,43.8,R,ugm-3,72.0,R,ugm-3,138.9,R,ugm-3,10,R,ugm-3,5.3,R,ugm-3
10-01-2009,09:00,47.9,R,ugm-3,71.6,R,ugm-3,144.8,R,ugm-3,12,R,ugm-3,6.7,R,ugm-3
10-01-2009,10:00,57.4,R,ugm-3,78.3,R,ugm-3,166.0,R,ugm-3,14,R,ugm-3,8.2,R,ugm-3
10-01-2009,11:00,67.8,R,ugm-3,83.3,R,ugm-3,186.8,R,ugm-3,16,R,ugm-3,9.3,R,ugm-3
10-01-2009,12:00,71.0,R,ugm-3,84.8,R,ugm-3,193.3,R,ugm-3,16,R,ugm-3,8.2,R,ugm-3
10-01-2009,13:00,82.6,R,ugm-3,92.1,R,ugm-3,218.3,R,ugm-3,16,R,ugm-3,6.9,R,ugm-3
10-01-2009,14:00,91.1,R,ugm-3,96.8,R,ugm-3,236.1,R,ugm-3,16,R,ugm-3,4.3,R,ugm-3
10-01-2009,15:00,70.0,R,ugm-3,85.8,R,ugm-3,192.7,R,ugm-3,14,R,ugm-3,3.7,R,ugm-3
10-01-2009,16:00,62.0,R,ugm-3,81.7,R,ugm-3,176.5,R,ugm-3,12,R,ugm-3,2.9,R,ugm-3
10-01-2009,17:00,49.3,R,ugm-3,76.0,R,ugm-3,151.3,R,ugm-3,10,R,ugm-3,1.6,R,ugm-3
10-01-2009,18:00,47.4,R,ugm-3,70.7,R,ugm-3,143.1,R,ugm-3,12,R,ugm-3,4.3,R,ugm-3
10-01-2009,19:00,43.9,R,ugm-3,61.7,R,ugm-3,128.7,R,ugm-3,12,R,ugm-3,6.4,R,ugm-3
10-01-2009,20:00,31.4,R,ugm-3,56.2,R,ugm-3,104.1,R,ugm-3,10,R,ugm-3,1.3,R,ugm-3
10-01-2009,21:00,17.5,R,ugm-3,49.5,R,ugm-3,76.2,R,ugm-3,12,R,ugm-3,0.3,R,ugm-3
10-01-2009,22:00,11.6,R,ugm-3,49.1,R,ugm-3,66.9,R,ugm-3,12,R,ugm-3,1.6,R,ugm-3
10-01-2009,23:00,11.5,R,ugm-3,53.5,R,ugm-3,71.1,R,ugm-3,12,R,ugm-3,3.7,R,ugm-3
10-01-2009,24:00,6.3,R,ugm-3,54.6,R,ugm-3,64.2,R,ugm-3,16,R,ugm-3,2.7,R,ugm-3
11-01-2009,01:00,2.8,R,ugm-3,40.9,R,ugm-3,45.1,R,ugm-3,26,R,ugm-3,4.5,R,ugm-3
11-01-2009,02:00,1.8,R,ugm-3,22.0,R,ugm-3,24.6,R,ugm-3,36,R,ugm-3,2.7,R,ugm-3
11-01-2009,03:00,1.8,R,ugm-3,23.7,R,ugm-3,26.4,R,ugm-3,36,R,ugm-3,2.7,R,ugm-3
11-01-2009,04:00,1.9,R,ugm-3,21.6,R,ugm-3,24.4,R,ugm-3,38,R,ugm-3,2.4,R,ugm-3
11-01-2009,05:00,1.6,R,ugm-3,24.8,R,ugm-3,27.3,R,ugm-3,42,R,ugm-3,2.4,R,ugm-3
11-01-2009,06:00,2.1,R,ugm-3,22.9,R,ugm-3,26.2,R,ugm-3,44,R,ugm-3,1.1,R,ugm-3
11-01-2009,07:00,1.3,R,ugm-3,17.8,R,ugm-3,19.7,R,ugm-3,52,R,ugm-3,0.3,R,ugm-3
11-01-2009,08:00,1.3,R,ugm-3,15.3,R,ugm-3,17.2,R,ugm-3,56,R,ugm-3,2.4,R,ugm-3
11-01-2009,09:00,1.3,R,ugm-3,15.5,R,ugm-3,17.4,R,ugm-3,58,R,ugm-3,1.3,R,ugm-3
11-01-2009,10:00,1.8,R,ugm-3,23.9,R,ugm-3,26.5,R,ugm-3,56,R,ugm-3,1.6,R,ugm-3
11-01-2009,11:00,1.8,R,ugm-3,20.8,R,ugm-3,23.5,R,ugm-3,66,R,ugm-3,2.4,R,ugm-3
11-01-2009,12:00,2.1,R,ugm-3,21.4,R,ugm-3,24.6,R,ugm-3,66,R,ugm-3,1.1,R,ugm-3
11-01-2009,13:00,1.5,R,ugm-3,14.5,R,ugm-3,16.8,R,ugm-3,72,R,ugm-3,2.4,R,ugm-3
11-01-2009,14:00,1.1,R,ugm-3,12.4,R,ugm-3,14.1,R,ugm-3,74,R,ugm-3,2.7,R,ugm-3
11-01-2009,15:00,1.1,R,ugm-3,14.1,R,ugm-3,15.9,R,ugm-3,70,R,ugm-3,2.4,R,ugm-3
11-01-2009,16:00,1.0,R,ugm-3,15.7,R,ugm-3,17.2,R,ugm-3,70,R,ugm-3,1.3,R,ugm-3
11-01-2009,17:00,0.8,R,ugm-3,15.9,R,ugm-3,17.0,R,ugm-3,68,R,ugm-3,2.1,R,ugm-3
11-01-2009,18:00,1.1,R,ugm-3,14.1,R,ugm-3,15.9,R,ugm-3,68,R,ugm-3,2.4,R,ugm-3
11-01-2009,19:00,1.1,R,ugm-3,11.7,R,ugm-3,13.4,R,ugm-3,66,R,ugm-3,2.7,R,ugm-3
11-01-2009,20:00,1.1,R,ugm-3,9.0,R,ugm-3,10.7,R,ugm-3,66,R,ugm-3,2.4,R,ugm-3
11-01-2009,21:00,0.9,R,ugm-3,7.4,R,ugm-3,8.8,R,ugm-3,68,R,ugm-3,2.1,R,ugm-3
11-01-2009,22:00,1.0,R,ugm-3,4.8,R,ugm-3,6.3,R,ugm-3,68,R,ugm-3,2.1,R,ugm-3
11-01-2009,23:00,0.9,R,ugm-3,3.6,R,ugm-3,5.0,R,ugm-3,68,R,ugm-3,2.7,R,ugm-3
11-01-2009,24:00,0.8,R,ugm-3,2.7,R,ugm-3,3.8,R,ugm-3,68,R,ugm-3,2.7,R,ugm-3
12-01-2009,01:00,0.9,R,ugm-3,6.7,R,ugm-3,8.0,R,ugm-3,68,R,ugm-3,1.9,R,ugm-3
12-01-2009,02:00,1.3,R,ugm-3,6.3,R,ugm-3,8.2,R,ugm-3,72,R,ugm-3,2.7,R,ugm-3
12-01-2009,03:00,1.0,R,ugm-3,5.3,R,ugm-3,6.9,R,ugm-3,74,R,ugm-3,1.6,R,ugm-3
12-01-2009,04:00,0.8,R,ugm-3,4.4,R,ugm-3,5.5,R,ugm-3,76,R,ugm-3,1.3,R,ugm-3
12-01-2009,05:00,0.6,R,ugm-3,1.7,R,ugm-3,2.7,R,ugm-3,72,R,ugm-3,0.3,R,ugm-3
12-01-2009,06:00,0.5,R,ugm-3,1.0,R,ugm-3,1.7,R,ugm-3,72,R,ugm-3,2.7,R,ugm-3
12-01-2009,07:00,0.4,R,ugm-3,2.5,R,ugm-3,3.1,R,ugm-3,68,R,ugm-3,1.3,R,ugm-3
12-01-2009,08:00,0.5,R,ugm-3,5.3,R,ugm-3,6.1,R,ugm-3,64,R,ugm-3,1.3,R,ugm-3
12-01-2009,09:00,1.3,R,ugm-3,14.1,R,ugm-3,16.0,R,ugm-3,60,R,ugm-3,2.1,R,ugm-3
12-01-2009,10:00,1.3,R,ugm-3,21.0,R,ugm-3,22.9,R,ugm-3,60,R,ugm-3,1.3,R,ugm-3
12-01-2009,11:00,1.3,R,ugm-3,22.5,R,ugm-3,24.4,R,ugm-3,60,R,ugm-3,0.8,R,ugm-3
12-01-2009,12:00,1.1,R,ugm-3,18.9,R,ugm-3,20.6,R,ugm-3,62,R,ugm-3,2.1,R,ugm-3
12-01-2009,13:00,0.6,R,ugm-3,16.2,R,ugm-3,17.2,R,ugm-3,62,R,ugm-3,2.7,R,ugm-3
12-01-2009,14:00,0.6,R,ugm-3,18.3,R,ugm-3,19.3,R,ugm-3,60,R,ugm-3,2.7,R,ugm-3
12-01-2009,15:00,1.3,R,ugm-3,18.7,R,ugm-3,20.6,R,ugm-3,60,R,ugm-3,2.4,R,ugm-3
12-01-2009,16:00,1.3,R,ugm-3,19.1,R,ugm-3,21.0,R,ugm-3,56,R,ugm-3,1.3,R,ugm-3
12-01-2009,17:00,1.3,R,ugm-3,18.3,R,ugm-3,20.2,R,ugm-3,58,R,ugm-3,2.4,R,ugm-3
12-01-2009,18:00,1.3,R,ugm-3,18.0,R,ugm-3,19.9,R,ugm-3,60,R,ugm-3,2.4,R,ugm-3
12-01-2009,19:00,1.0,R,ugm-3,18.3,R,ugm-3,19.9,R,ugm-3,60,R,ugm-3,1.6,R,ugm-3
12-01-2009,20:00,1.1,R,ugm-3,18.1,R,ugm-3,19.9,R,ugm-3,56,R,ugm-3,1.6,R,ugm-3
12-01-2009,21:00,1.0,R,ugm-3,22.5,R,ugm-3,24.1,R,ugm-3,52,R,ugm-3,2.7,R,ugm-3
12-01-2009,22:00,0.6,R,ugm-3,19.3,R,ugm-3,20.2,R,ugm-3,56,R,ugm-3,2.7,R,ugm-3
12-01-2009,23:00,1.0,R,ugm-3,18.7,R,ugm-3,20.2,R,ugm-3,54,R,ugm-3,2.7,R,ugm-3
12-01-2009,24:00,1.0,R,ugm-3,13.2,R,ugm-3,14.7,R,ugm-3,68,R,ugm-3,2.9,R,ugm-3
13-01-2009,01:00,1.0,R,ugm-3,9.7,R,ugm-3,11.3,R,ugm-3,66,R,ugm-3,4.5,R,ugm-3
13-01-2009,02:00,0.9,R,ugm-3,8.6,R,ugm-3,9.9,R,ugm-3,64,R,ugm-3,3.2,R,ugm-3
13-01-2009,03:00,1.3,R,ugm-3,4.8,R,ugm-3,6.7,R,ugm-3,62,R,ugm-3,2.7,R,ugm-3
13-01-2009,04:00,1.1,R,ugm-3,4.2,R,ugm-3,5.9,R,ugm-3,60,R,ugm-3,2.1,R,ugm-3
13-01-2009,05:00,1.0,R,ugm-3,4.8,R,ugm-3,6.3,R,ugm-3,64,R,ugm-3,2.4,R,ugm-3
13-01-2009,06:00,1.3,R,ugm-3,5.9,R,ugm-3,7.8,R,ugm-3,58,R,ugm-3,2.7,R,ugm-3
13-01-2009,07:00,1.3,R,ugm-3,8.0,R,ugm-3,9.9,R,ugm-3,52,R,ugm-3,2.7,R,ugm-3
13-01-2009,08:00,1.8,R,ugm-3,17.0,R,ugm-3,19.7,R,ugm-3,48,R,ugm-3,2.7,R,ugm-3
13-01-2009,09:00,2.4,R,ugm-3,22.9,R,ugm-3,26.5,R,ugm-3,44,R,ugm-3,1.6,R,ugm-3
13-01-2009,10:00,2.5,R,ugm-3,23.3,R,ugm-3,27.1,R,ugm-3,44,R,ugm-3,2.4,R,ugm-3
13-01-2009,11:00,2.5,R,ugm-3,27.5,R,ugm-3,31.3,R,ugm-3,48,R,ugm-3,2.7,R,ugm-3
13-01-2009,12:00,2.4,R,ugm-3,28.3,R,ugm-3,31.9,R,ugm-3,52,R,ugm-3,2.7,R,ugm-3
13-01-2009,13:00,2.5,R,ugm-3,23.5,R,ugm-3,27.3,R,ugm-3,58,R,ugm-3,2.7,R,ugm-3
13-01-2009,14:00,2.3,R,ugm-3,24.6,R,ugm-3,28.1,R,ugm-3,56,R,ugm-3,4.3,R,ugm-3
13-01-2009,15:00,2.0,R,ugm-3,22.5,R,ugm-3,25.6,R,ugm-3,58,R,ugm-3,2.7,R,ugm-3
13-01-2009,16:00,2.3,R,ugm-3,23.1,R,ugm-3,26.5,R,ugm-3,50,R,ugm-3,2.7,R,ugm-3
13-01-2009,17:00,3.5,R,ugm-3,27.1,R,ugm-3,32.5,R,ugm-3,44,R,ugm-3,2.7,R,ugm-3